Location: Arboyeti
(42.1122°N, 44.6017°E)
Time: 04:45:33
(UTC+00:00)

SL-08 R/B - Pass Details

Date: 19 April 2021
Orbit: 673 x 740 km, 98.5° (Epoch: 09 May)

Event Time Altitude Azimuth Distance (km) Brightness Sun altitude
Exits shadow 23:45:16 - 145° (SE) 2,550 6.1 -24.4°
Reaches altitude 10° 23:46:06 10° 142° (SE) 2,227 5.8 -24.3°
Maximum altitude 23:50:45 45° 71° (ENE) 984 4.4 -23.7°
Drops below altitude 10° 23:55:22 10° 359° (N) 2,208 6.4 -23.1°
Sets 23:57:41 0° 353° (N) 3,122 7.2 -22.7°
